TITAN 3C TRANSTAGE DEB, 59978

Orbit data source: Space-Track

TITAN 3C TRANSTAGE DEB, 59978 is space debris in GEO originally from a launch on Thu, 26 Sep 1968 UTC launched from the Air Force Eastern Test Range (AFETR). Debris objects in space refer to the collection of defunct objects orbiting the Earth. Examples of debris include non-operational satellites, rocket bodies, and fragments generated from explosions, collisions, or faulty payload assembly.

Not visible in the next 10 days
Identifier
59978, 1968-081AL
Orbit
GEO
Country
Flag of USUS
Related business
Manufacturer
Unknown
Mission
Spacecraft
Bus & Motor
Unknown
Mass
Unknown
Launch date (UTC)
1968-09-26 (57 years ago)
Launch vehicle
Unknown
Launch site
Air Force Eastern Test Range (AFETR)
Object type
Payload
Rocket body
Debris
Shape & HBR
Unknown shape, 1.1 m
Radar Cross Section
RCS unknown

Expand to show TLE details & history
Last TLE update: 1 day ago

TLE from 1 day ago
0 TITAN 3C TRANSTAGE DEB
1 59978U 68081AL  25301.09954584  .00000031  00000-0  00000-0 0  9990
2 59978   1.6974  52.0105 0090886 236.3449 122.5902  1.02045741 27444
Epoch: 2025-10-28T02:23Z
TLE epoch observation values (Epoch: 2025-10-28T02:23:20.760Z)
Latitude
Longitude
-20.74865°
Altitude
35,502.132 km
Speed
3.077 km/s
True Right ascension
03h 27m 07s
True Declination
0° 00' 00"
Sunlit
Object was in daylight at epoch
Visualization orbit readout
Latitude
Unknown
Longitude
Unknown
Altitude
Unknown
Speed
Unknown
Apparent Right ascension
Unknown
Apparent Declination
Unknown
Sunlit
N/A
Visualization observer readout
Local Sidereal Time
06:18:18
Azimuth
Unknown
Elevation
Unknown
Doppler factor
Unknown
Orbital elements
Apogee altitude
35,676.364 km
Perigee altitude
34,918.816 km
Semi-major axis
41,675.727 km
Eccentricity
0.00909
Inclination
1.6974°
RAAN
52.0105°
Arg. of periapsis
236.3449°
True anomaly
123.46232°
Mean anomaly
122.5902°
Eccentric anomaly
123.0268°
Mean motion
0.2551 °/min
Orbital period
1,411.19 mins
BSTAR
0
Loading maneuver chart data...
Computing Atmospheric mass density...

Documentation

Showing up to 5 results
|